星链-31531 (STARLINK-31531 )

导读

STARLINK-31531是美国SpaceX星链星座的成员卫星,于2024年4月10日发射入轨。星链项目旨在搭建全球卫星互联网通信系统,为偏远地区、海洋等网络覆盖薄弱区域提供宽带服务。该卫星继承星链平台设计,依托批量化生产与猎鹰火箭复用发射控制成本,持续拓展星链星座的服务覆盖能力与网络容量。

基本信息
目录编号:
59477
目录名称:
STARLINK-31531
国际标识:
2024-068Y
轨道中心:
EARTH
卫星名称:
星链-31531
卫星全名:
星链-31531 (STARLINK-31531 )
卫星状态:
在轨 (已飞行795 天)
发射日期:
2024-04-10 UTC
国别 :
美国 (US)
星等 :
--
轨道信息
数据来源 国际轨道数据 AOE轨道数据
星历时间 2026-06-14T01:01:48+0800
18小时前
查看轨道信息
2026-06-10T05:00:00+0800
4天前
查看轨道信息
半长轴 6861.202km 6861.204km
偏心率 0.0001161 0.0001662
轨道倾角 42.993° 43.000°
近地点辐角 169.918° 244.420°
升交点赤经 157.088° 178.755°
平近点角 190.169° 243.431°
近地点 482.268km 481.926km
远地点 483.862km 484.208km
周期 94.267分钟 94.267分钟
每日圈数 15.27575 15.275741
详细信息
固有亮度:
5
最大亮度:
1.5
卫星平台:
Starlink v2.0 mini
覆盖范围:
全球
运营商:
太空探索技术公司
运营商所在国:
美国
制造商(研发单位):
太空探索技术公司
制造商所在国:
美国
使用方式:
暂无
卫星简介
星链(Starlink)计划是由太空探索技术公司(SpaceX)提出的一个巨型低轨卫星互联网星座项目,计划在2019年至2024年间在太空搭建由约1.2万颗卫星组成的“星链”网络,其中1584颗将部署在地球上空550千米处的近地轨道,并从2020年开始工作。该卫星仍在工作。
2D轨道图
3D轨道图
轨道高度分析图
轨道倾角分析图
轨道综合分析图
查看轨道综合分析图